Darstellungsparameter: Aktuell verwendete Einstellungen:
Skalierung der Graphiken ... ?
xyx+y,   Skalierungsfaktor:      Skalierung: Modus: x, Faktor: 1
Darstellungszeitraum ... ?
Vom - - bis: - -   Zeitraum: 29.01.2019 - 29.01.2019
Min/Max/Avg-Anzeige ... ?
Zeige MMA aktuell
Zeige MMA Monat
Zeige MMA alles
Zeige --A aktuell
Zeige --A Monat
Zeige --A alles
Keine MMA-Anzeige
MMA:
Keine MMA-Graphiken
MMA-Basis: 29.01.2019 - 29.01.2019
Quicknavigation für Darstellung... ?
Tage:      1T, 2T, 3T, 5T -1T -2T -3T -5T +1T +2T +3T +5T
Wochen: 1W, 2W, 3W -1W -2W -3W +1W +2W +3W
Monate: 1M, 3M, 6M -1M -3M -6M +1M +3M +6M
Jahre:    1J, 3J, 5J, 10J -1J -3J -5J -10J +1J +3J +5J +10J
Nutze für die Darstellung ... ?
Originaldaten oder Mittelwerte auf ...
Stundenbasis Tagesbasis Wochenbasis
Monatsbasis Jahresbasis      Datenbasis: Original-Daten
Darstellen als:
Statistik (Auto) Statistik J:M      Darstellung:
Zur Graphik,    zurück zur Übersicht aller Sensoren.
 
Tabellarische Datenbersicht: ?
 
Sensor: Nr:Datum:Temp:Feuchte:Taupunkt:
Aussen-T/F 1 29-01-2019 00:00:00 2.9 C 88 % 1.11 C
2 29-01-2019 00:05:00 2.9 C 88 % 1.11 C
3 29-01-2019 00:10:00 2.8 C 88 % 1.02 C
4 29-01-2019 00:15:00 2.8 C 89 % 1.17 C
5 29-01-2019 00:20:00 2.8 C 89 % 1.17 C
6 29-01-2019 00:25:00 2.7 C 89 % 1.07 C
7 29-01-2019 00:30:00 2.7 C 89 % 1.07 C
8 29-01-2019 00:35:00 2.7 C 89 % 1.07 C
9 29-01-2019 00:40:00 2.7 C 89 % 1.07 C
10 29-01-2019 00:45:00 2.7 C 89 % 1.07 C
11 29-01-2019 00:50:00 2.7 C 89 % 1.07 C
12 29-01-2019 00:55:00 2.6 C 90 % 1.13 C
13 29-01-2019 01:00:00 2.6 C 90 % 1.13 C
14 29-01-2019 01:05:00 2.6 C 90 % 1.13 C
15 29-01-2019 01:10:00 2.6 C 90 % 1.13 C
16 29-01-2019 01:15:00 2.5 C 90 % 1.03 C
17 29-01-2019 01:20:00 2.6 C 90 % 1.13 C
18 29-01-2019 01:25:00 2.5 C 90 % 1.03 C
19 29-01-2019 01:30:00 2.4 C 91 % 1.08 C
20 29-01-2019 01:35:00 2.3 C 91 % 0.99 C
21 29-01-2019 01:40:00 2.2 C 91 % 0.89 C
22 29-01-2019 01:45:00 2.1 C 92 % 0.94 C
23 29-01-2019 01:50:00 2.1 C 92 % 0.94 C
24 29-01-2019 01:55:00 2.1 C 92 % 0.94 C
25 29-01-2019 02:00:00 2.1 C 92 % 0.94 C
Sensor: Nr:Datum:Temp:Feuchte:Taupunkt:
Aussen-T/F 26 29-01-2019 02:05:00 2 C 92 % 0.84 C
27 29-01-2019 02:10:00 1.9 C 92 % 0.74 C
28 29-01-2019 02:15:00 1.9 C 93 % 0.89 C
29 29-01-2019 02:20:00 1.9 C 93 % 0.89 C
30 29-01-2019 02:25:00 1.9 C 93 % 0.89 C
31 29-01-2019 02:30:00 1.9 C 93 % 0.89 C
32 29-01-2019 02:35:00 1.9 C 93 % 0.89 C
33 29-01-2019 02:40:00 1.9 C 93 % 0.89 C
34 29-01-2019 02:45:00 1.9 C 93 % 0.89 C
35 29-01-2019 02:50:00 1.9 C 93 % 0.89 C
36 29-01-2019 02:55:00 1.8 C 93 % 0.79 C
37 29-01-2019 03:00:00 1.7 C 93 % 0.69 C
38 29-01-2019 03:05:00 1.7 C 93 % 0.69 C
39 29-01-2019 03:10:00 1.7 C 94 % 0.84 C
40 29-01-2019 03:15:00 1.7 C 94 % 0.84 C
41 29-01-2019 03:20:00 1.7 C 94 % 0.84 C
42 29-01-2019 03:25:00 1.6 C 94 % 0.74 C
43 29-01-2019 03:30:00 1.6 C 94 % 0.74 C
44 29-01-2019 03:35:00 1.6 C 94 % 0.74 C
45 29-01-2019 03:40:00 1.6 C 94 % 0.74 C
46 29-01-2019 03:45:00 1.5 C 94 % 0.64 C
47 29-01-2019 03:50:00 1.4 C 94 % 0.54 C
48 29-01-2019 03:55:00 1.3 C 94 % 0.44 C
49 29-01-2019 04:00:00 1.2 C 94 % 0.34 C
50 29-01-2019 04:05:00 1.2 C 94 % 0.34 C
Sensor: Nr:Datum:Temp:Feuchte:Taupunkt:
Aussen-T/F 51 29-01-2019 04:10:00 1.1 C 94 % 0.24 C
52 29-01-2019 04:15:00 1.1 C 94 % 0.24 C
53 29-01-2019 04:20:00 1.1 C 94 % 0.24 C
54 29-01-2019 04:25:00 1 C 94 % 0.15 C
55 29-01-2019 04:30:00 1 C 94 % 0.15 C
56 29-01-2019 04:35:00 0.9 C 94 % 0.05 C
57 29-01-2019 04:40:00 0.9 C 94 % 0.05 C
58 29-01-2019 04:45:00 1 C 94 % 0.15 C
59 29-01-2019 04:50:00 1.1 C 94 % 0.24 C
60 29-01-2019 04:55:00 0.9 C 94 % 0.05 C
61 29-01-2019 05:00:00 0.8 C 94 % -0.05 C
62 29-01-2019 05:05:00 0.8 C 94 % -0.05 C
63 29-01-2019 05:10:00 0.7 C 94 % -0.15 C
64 29-01-2019 05:15:00 0.7 C 94 % -0.15 C
65 29-01-2019 05:20:00 0.7 C 94 % -0.15 C
66 29-01-2019 05:25:00 0.6 C 94 % -0.25 C
67 29-01-2019 05:30:00 0.6 C 94 % -0.25 C
68 29-01-2019 05:35:00 0.6 C 94 % -0.25 C
69 29-01-2019 05:40:00 0.6 C 94 % -0.25 C
70 29-01-2019 05:45:00 0.7 C 95 % -0.01 C
71 29-01-2019 05:50:00 0.7 C 95 % -0.01 C
72 29-01-2019 05:55:00 0.8 C 95 % 0.09 C
73 29-01-2019 06:00:00 0.9 C 95 % 0.19 C
74 29-01-2019 06:05:00 1 C 95 % 0.29 C
75 29-01-2019 06:10:00 1 C 95 % 0.29 C
Sensor: Nr:Datum:Temp:Feuchte:Taupunkt:
Aussen-T/F 76 29-01-2019 06:15:00 0.9 C 95 % 0.19 C
77 29-01-2019 06:20:00 0.9 C 94 % 0.05 C
78 29-01-2019 06:25:00 0.9 C 95 % 0.19 C
79 29-01-2019 06:30:00 0.9 C 95 % 0.19 C
80 29-01-2019 06:35:00 0.9 C 95 % 0.19 C
81 29-01-2019 06:40:00 0.9 C 95 % 0.19 C
82 29-01-2019 06:45:00 1 C 95 % 0.29 C
83 29-01-2019 06:50:00 1 C 95 % 0.29 C
84 29-01-2019 06:55:00 1.1 C 94 % 0.24 C
85 29-01-2019 07:00:00 1.1 C 94 % 0.24 C
86 29-01-2019 07:05:00 1.1 C 94 % 0.24 C
87 29-01-2019 07:10:00 1.1 C 94 % 0.24 C
88 29-01-2019 07:15:00 1.1 C 94 % 0.24 C
89 29-01-2019 07:20:00 1.2 C 94 % 0.34 C
90 29-01-2019 07:25:00 1.1 C 94 % 0.24 C
91 29-01-2019 07:30:00 1.1 C 94 % 0.24 C
92 29-01-2019 07:35:00 1.2 C 94 % 0.34 C
93 29-01-2019 07:40:00 1.2 C 94 % 0.34 C
94 29-01-2019 07:45:00 1.2 C 95 % 0.49 C
95 29-01-2019 07:50:00 1.2 C 94 % 0.34 C
96 29-01-2019 07:55:00 1.2 C 94 % 0.34 C
97 29-01-2019 08:00:00 1.2 C 94 % 0.34 C
98 29-01-2019 08:05:00 1.2 C 94 % 0.34 C
99 29-01-2019 08:10:00 1.2 C 94 % 0.34 C
100 29-01-2019 08:15:00 1.2 C 94 % 0.34 C
Sensor: Nr:Datum:Temp:Feuchte:Taupunkt:
Aussen-T/F 101 29-01-2019 08:20:00 1.2 C 94 % 0.34 C
102 29-01-2019 08:25:00 1.2 C 94 % 0.34 C
103 29-01-2019 08:30:00 1.2 C 94 % 0.34 C
104 29-01-2019 08:35:00 1.2 C 94 % 0.34 C
105 29-01-2019 08:40:00 1.2 C 94 % 0.34 C
106 29-01-2019 08:45:00 1.2 C 94 % 0.34 C
107 29-01-2019 08:50:00 1.1 C 94 % 0.24 C
108 29-01-2019 08:55:00 1.1 C 94 % 0.24 C
109 29-01-2019 09:00:00 1 C 94 % 0.15 C
110 29-01-2019 09:05:00 0.9 C 94 % 0.05 C
111 29-01-2019 09:10:00 0.9 C 94 % 0.05 C
112 29-01-2019 09:15:00 0.8 C 94 % -0.05 C
113 29-01-2019 09:20:00 0.8 C 94 % -0.05 C
114 29-01-2019 09:25:00 0.8 C 94 % -0.05 C
115 29-01-2019 09:30:00 0.9 C 94 % 0.05 C
116 29-01-2019 09:35:00 0.9 C 94 % 0.05 C
117 29-01-2019 09:40:00 1.1 C 94 % 0.24 C
118 29-01-2019 09:45:00 1.2 C 94 % 0.34 C
119 29-01-2019 09:50:00 1.3 C 94 % 0.44 C
120 29-01-2019 09:55:00 1.5 C 94 % 0.64 C
121 29-01-2019 10:00:00 1.6 C 93 % 0.59 C
122 29-01-2019 10:05:00 1.7 C 93 % 0.69 C
123 29-01-2019 10:10:00 1.8 C 92 % 0.64 C
124 29-01-2019 10:15:00 1.9 C 92 % 0.74 C
125 29-01-2019 10:20:00 2 C 92 % 0.84 C
Sensor: Nr:Datum:Temp:Feuchte:Taupunkt:
Aussen-T/F 126 29-01-2019 10:25:00 2.1 C 91 % 0.79 C
127 29-01-2019 10:30:00 2.2 C 91 % 0.89 C
128 29-01-2019 10:35:00 2.2 C 90 % 0.73 C
129 29-01-2019 10:40:00 2.3 C 90 % 0.83 C
130 29-01-2019 10:45:00 2.3 C 90 % 0.83 C
131 29-01-2019 10:50:00 2.3 C 89 % 0.68 C
132 29-01-2019 10:55:00 2.4 C 89 % 0.78 C
133 29-01-2019 11:00:00 2.5 C 89 % 0.88 C
134 29-01-2019 11:05:00 2.6 C 89 % 0.97 C
135 29-01-2019 11:10:00 2.7 C 88 % 0.92 C
136 29-01-2019 11:15:00 2.8 C 88 % 1.02 C
137 29-01-2019 11:20:00 2.8 C 88 % 1.02 C
138 29-01-2019 11:25:00 2.9 C 88 % 1.11 C
139 29-01-2019 11:30:00 2.9 C 88 % 1.11 C
140 29-01-2019 11:35:00 3 C 88 % 1.21 C
141 29-01-2019 11:40:00 3.1 C 87 % 1.15 C
142 29-01-2019 11:45:00 3.2 C 87 % 1.25 C
143 29-01-2019 11:50:00 3.2 C 87 % 1.25 C
144 29-01-2019 11:55:00 3.3 C 87 % 1.35 C
145 29-01-2019 12:00:00 3.4 C 86 % 1.29 C
146 29-01-2019 12:05:00 3.4 C 86 % 1.29 C
147 29-01-2019 12:10:00 3.5 C 86 % 1.38 C
148 29-01-2019 12:15:00 3.5 C 86 % 1.38 C
149 29-01-2019 12:20:00 3.6 C 86 % 1.48 C
150 29-01-2019 12:25:00 3.6 C 86 % 1.48 C
Sensor: Nr:Datum:Temp:Feuchte:Taupunkt:
Aussen-T/F 151 29-01-2019 12:30:00 3.7 C 86 % 1.58 C
152 29-01-2019 12:35:00 3.7 C 85 % 1.42 C
153 29-01-2019 12:40:00 3.8 C 85 % 1.52 C
154 29-01-2019 12:45:00 3.8 C 84 % 1.35 C
155 29-01-2019 12:50:00 3.8 C 84 % 1.35 C
156 29-01-2019 12:55:00 3.8 C 84 % 1.35 C
157 29-01-2019 13:00:00 3.8 C 84 % 1.35 C
158 29-01-2019 13:05:00 3.9 C 84 % 1.45 C
159 29-01-2019 13:10:00 3.9 C 84 % 1.45 C
160 29-01-2019 13:15:00 4 C 84 % 1.55 C
161 29-01-2019 13:20:00 4 C 84 % 1.55 C
162 29-01-2019 13:25:00 3.9 C 84 % 1.45 C
163 29-01-2019 13:30:00 4 C 84 % 1.55 C
164 29-01-2019 13:35:00 4 C 84 % 1.55 C
165 29-01-2019 13:40:00 4.1 C 84 % 1.65 C
166 29-01-2019 13:45:00 4 C 84 % 1.55 C
167 29-01-2019 13:50:00 4 C 83 % 1.38 C
168 29-01-2019 13:55:00 4 C 84 % 1.55 C
169 29-01-2019 14:00:00 4 C 83 % 1.38 C
170 29-01-2019 14:05:00 4.1 C 83 % 1.48 C
171 29-01-2019 14:10:00 4 C 83 % 1.38 C
172 29-01-2019 14:15:00 4 C 83 % 1.38 C
173 29-01-2019 14:20:00 3.9 C 82 % 1.12 C
174 29-01-2019 14:25:00 3.9 C 83 % 1.28 C
175 29-01-2019 14:30:00 3.8 C 83 % 1.19 C
Sensor: Nr:Datum:Temp:Feuchte:Taupunkt:
Aussen-T/F 176 29-01-2019 14:35:00 3.7 C 83 % 1.09 C
177 29-01-2019 14:40:00 3.7 C 83 % 1.09 C
178 29-01-2019 14:45:00 3.7 C 83 % 1.09 C
179 29-01-2019 14:50:00 3.7 C 82 % 0.92 C
180 29-01-2019 14:55:00 3.7 C 82 % 0.92 C
181 29-01-2019 15:00:00 3.7 C 81 % 0.75 C
182 29-01-2019 15:05:00 3.7 C 82 % 0.92 C
183 29-01-2019 15:10:00 3.7 C 82 % 0.92 C
184 29-01-2019 15:15:00 3.7 C 82 % 0.92 C
185 29-01-2019 15:20:00 3.8 C 81 % 0.85 C
186 29-01-2019 15:25:00 3.8 C 82 % 1.02 C
187 29-01-2019 15:30:00 3.8 C 82 % 1.02 C
188 29-01-2019 15:35:00 3.8 C 82 % 1.02 C
189 29-01-2019 15:40:00 3.9 C 81 % 0.95 C
190 29-01-2019 15:45:00 3.9 C 81 % 0.95 C
191 29-01-2019 15:50:00 3.9 C 81 % 0.95 C
192 29-01-2019 15:55:00 3.9 C 81 % 0.95 C
193 29-01-2019 16:00:00 4 C 81 % 1.04 C
194 29-01-2019 16:05:00 3.9 C 80 % 0.77 C
195 29-01-2019 16:10:00 3.9 C 81 % 0.95 C
196 29-01-2019 16:15:00 3.9 C 80 % 0.77 C
197 29-01-2019 16:20:00 3.9 C 80 % 0.77 C
198 29-01-2019 16:25:00 3.8 C 81 % 0.85 C
199 29-01-2019 16:30:00 3.8 C 83 % 1.19 C
200 29-01-2019 16:35:00 3.7 C 81 % 0.75 C
Sensor: Nr:Datum:Temp:Feuchte:Taupunkt:
Aussen-T/F 201 29-01-2019 16:40:00 3.7 C 83 % 1.09 C
202 29-01-2019 16:45:00 3.6 C 83 % 0.99 C
203 29-01-2019 16:50:00 3.6 C 83 % 0.99 C
204 29-01-2019 16:55:00 3.4 C 83 % 0.79 C
205 29-01-2019 17:00:00 3.4 C 84 % 0.96 C
206 29-01-2019 17:05:00 3.2 C 84 % 0.76 C
207 29-01-2019 17:10:00 3.1 C 83 % 0.5 C
208 29-01-2019 17:15:00 2.9 C 83 % 0.31 C
209 29-01-2019 17:20:00 2.9 C 84 % 0.47 C
210 29-01-2019 17:25:00 2.8 C 84 % 0.37 C
211 29-01-2019 17:30:00 2.7 C 84 % 0.27 C
212 29-01-2019 17:35:00 2.7 C 85 % 0.44 C
213 29-01-2019 17:40:00 2.6 C 86 % 0.5 C
214 29-01-2019 17:45:00 2.4 C 86 % 0.3 C
215 29-01-2019 17:50:00 2.4 C 86 % 0.3 C
216 29-01-2019 17:55:00 2.3 C 86 % 0.21 C
217 29-01-2019 18:00:00 2.2 C 86 % 0.11 C
218 29-01-2019 18:05:00 2 C 86 % -0.09 C
219 29-01-2019 18:10:00 1.8 C 86 % -0.29 C
220 29-01-2019 18:15:00 1.7 C 86 % -0.38 C
221 29-01-2019 18:20:00 1.4 C 87 % -0.52 C
222 29-01-2019 18:25:00 1.3 C 87 % -0.62 C
223 29-01-2019 18:30:00 1.1 C 87 % -0.82 C
224 29-01-2019 18:35:00 1 C 88 % -0.76 C
225 29-01-2019 18:40:00 0.9 C 88 % -0.86 C
Sensor: Nr:Datum:Temp:Feuchte:Taupunkt:
Aussen-T/F 226 29-01-2019 18:45:00 0.8 C 88 % -0.96 C
227 29-01-2019 18:50:00 0.7 C 89 % -0.9 C
228 29-01-2019 18:55:00 0.7 C 89 % -0.9 C
229 29-01-2019 19:00:00 0.6 C 89 % -1 C
230 29-01-2019 19:05:00 0.6 C 90 % -0.85 C
231 29-01-2019 19:10:00 0.5 C 90 % -0.95 C
232 29-01-2019 19:15:00 0.5 C 90 % -0.95 C
233 29-01-2019 19:20:00 0.4 C 90 % -1.04 C
234 29-01-2019 19:25:00 0.3 C 90 % -1.14 C
235 29-01-2019 19:30:00 0.2 C 90 % -1.24 C
236 29-01-2019 19:35:00 0.1 C 90 % -1.34 C
237 29-01-2019 19:40:00 0.1 C 90 % -1.34 C
238 29-01-2019 19:45:00 0 C 90 % -1.44 C
239 29-01-2019 19:50:00 -0.1 C 90 % -1.54 C
240 29-01-2019 19:55:00 -0.1 C 90 % -1.54 C
241 29-01-2019 20:00:00 -0.1 C 91 % -1.39 C
242 29-01-2019 20:05:00 -0.2 C 90 % -1.64 C
243 29-01-2019 20:10:00 -0.2 C 91 % -1.49 C
244 29-01-2019 20:15:00 -0.2 C 91 % -1.49 C
245 29-01-2019 20:20:00 -0.3 C 91 % -1.59 C
246 29-01-2019 20:25:00 -0.3 C 91 % -1.59 C
247 29-01-2019 20:30:00 -0.3 C 91 % -1.59 C
248 29-01-2019 20:35:00 -0.3 C 91 % -1.59 C
249 29-01-2019 20:40:00 -0.3 C 91 % -1.59 C
250 29-01-2019 20:45:00 -0.3 C 91 % -1.59 C
Sensor: Nr:Datum:Temp:Feuchte:Taupunkt:
Aussen-T/F 251 29-01-2019 20:50:00 -0.3 C 91 % -1.59 C
252 29-01-2019 20:55:00 -0.3 C 91 % -1.59 C
253 29-01-2019 21:00:00 -0.3 C 91 % -1.59 C
254 29-01-2019 21:05:00 -0.3 C 91 % -1.59 C
255 29-01-2019 21:10:00 -0.3 C 91 % -1.59 C
256 29-01-2019 21:15:00 -0.3 C 91 % -1.59 C
257 29-01-2019 21:20:00 -0.3 C 91 % -1.59 C
258 29-01-2019 21:25:00 -0.3 C 91 % -1.59 C
259 29-01-2019 21:30:00 -0.3 C 91 % -1.59 C
260 29-01-2019 21:35:00 -0.3 C 91 % -1.59 C
261 29-01-2019 21:40:00 -0.3 C 91 % -1.59 C
262 29-01-2019 21:45:00 -0.3 C 91 % -1.59 C
263 29-01-2019 21:50:00 -0.3 C 91 % -1.59 C
264 29-01-2019 21:55:00 -0.3 C 91 % -1.59 C
265 29-01-2019 22:00:00 -0.3 C 91 % -1.59 C
266 29-01-2019 22:05:00 -0.3 C 91 % -1.59 C
267 29-01-2019 22:10:00 -0.3 C 91 % -1.59 C
268 29-01-2019 22:15:00 -0.4 C 91 % -1.69 C
269 29-01-2019 22:20:00 -0.4 C 91 % -1.69 C
270 29-01-2019 22:25:00 -0.4 C 91 % -1.69 C
271 29-01-2019 22:30:00 -0.4 C 91 % -1.69 C
272 29-01-2019 22:35:00 -0.4 C 91 % -1.69 C
273 29-01-2019 22:40:00 -0.4 C 91 % -1.69 C
274 29-01-2019 22:45:00 -0.4 C 92 % -1.54 C
275 29-01-2019 22:50:00 -0.4 C 92 % -1.54 C
Sensor: Nr:Datum:Temp:Feuchte:Taupunkt:
Aussen-T/F 276 29-01-2019 22:55:00 -0.4 C 92 % -1.54 C
277 29-01-2019 23:00:00 -0.4 C 92 % -1.54 C
278 29-01-2019 23:05:00 -0.5 C 92 % -1.64 C
279 29-01-2019 23:10:00 -0.5 C 92 % -1.64 C
280 29-01-2019 23:15:00 -0.5 C 92 % -1.64 C
281 29-01-2019 23:20:00 -0.5 C 92 % -1.64 C
282 29-01-2019 23:25:00 -0.6 C 92 % -1.74 C
283 29-01-2019 23:30:00 -0.6 C 92 % -1.74 C
284 29-01-2019 23:35:00 -0.6 C 92 % -1.74 C
285 29-01-2019 23:40:00 -0.6 C 93 % -1.59 C
286 29-01-2019 23:45:00 -0.6 C 93 % -1.59 C
287 29-01-2019 23:50:00 -0.6 C 93 % -1.59 C
288 29-01-2019 23:55:00 -0.6 C 93 % -1.59 C

Legende:
   Min
   Max


Maximal/Minimal-Werte vom 29.01.2019 - 29.01.2019

Sensor Min Max Avg
Temp
(Aussen-T/F)
-0.6 °C
29-01-2019  23:25:00
4.1 °C
29-01-2019  13:40:00
1.73 °C
Feuchte
(Aussen-T/F)
80 %
29-01-2019  16:05:00
95 %
29-01-2019  05:45:00
89.69 %
Taupunkt
(Aussen-T/F)
-1.74 C
29-01-2019  23:25:00
1.65 C
29-01-2019  13:40:00
0.2 C

Die Daten stammen von einer Davis Vantage Pro 2 Wetter-Station und werden unter Linux mit der Software wview2wettercgi und aufbereitet. Alle Angaben erfolgen ohne Gewähr für ihre Vollständigkeit oder Richtigkeit.
Kontakt: Rainer Krienke krienke@uni-koblenz.de . Meine Webseiten an der Uni Koblenz oder privat.
Version: $Revision: 0.78 $